Satellite-Ground Cal/Val Region Overpasses Predictions

Prediction of Satellite NPP Overpassing Cal/Val Region: PacNW

Region Location: (Latitude: 10.00, Longitude: 139.50) to (Latitude: 22.70, Longitude: 165.60).

Table of predicted overpasses for the next 14.0 days since TLE Epoch: 1/23/2017
Interval Starting Time Starting Location Ending Time Ending Location
1 01/24/2017 03:30:24 ( 10.01, 147.11) 01/24/2017 03:34:00 ( 22.69, 144.10)
2 01/24/2017 16:02:18 ( 22.64, 144.33) 01/24/2017 16:05:53 ( 10.02, 141.33)
3 01/25/2017 03:11:21 ( 10.00, 151.87) 01/25/2017 03:14:57 ( 22.68, 148.86)
4 01/25/2017 15:43:15 ( 22.65, 149.09) 01/25/2017 15:46:50 ( 10.03, 146.09)
5 01/26/2017 02:52:20 ( 10.05, 156.62) 01/26/2017 02:55:55 ( 22.67, 153.62)
6 01/26/2017 15:24:13 ( 22.66, 153.85) 01/26/2017 15:27:48 ( 10.04, 150.85)
7 01/27/2017 02:33:17 ( 10.05, 161.38) 01/27/2017 02:36:52 ( 22.67, 158.38)
8 01/27/2017 15:05:10 ( 22.66, 158.62) 01/27/2017 15:08:45 ( 10.04, 155.61)
9 01/28/2017 02:14:56 ( 12.45, 165.59) 01/28/2017 02:17:50 ( 22.66, 163.14)
10 01/28/2017 03:55:45 ( 10.05, 140.77) 01/28/2017 03:57:18 ( 15.51, 139.50)
11 01/28/2017 14:46:08 ( 22.67, 163.38) 01/28/2017 14:49:43 ( 10.05, 160.37)
12 01/29/2017 03:36:43 ( 10.04, 145.53) 01/29/2017 03:40:18 ( 22.66, 142.53)
13 01/29/2017 14:30:06 ( 12.05, 165.59) 01/29/2017 14:30:40 ( 10.05, 165.14)
14 01/29/2017 16:08:35 ( 22.67, 142.76) 01/29/2017 16:12:10 ( 10.05, 139.76)
15 01/30/2017 03:17:40 ( 10.03, 150.29) 01/30/2017 03:21:15 ( 22.65, 147.29)
16 01/30/2017 15:49:33 ( 22.67, 147.52) 01/30/2017 15:53:08 ( 10.05, 144.52)
17 01/31/2017 02:58:38 ( 10.03, 155.05) 01/31/2017 03:02:13 ( 22.65, 152.05)
18 01/31/2017 15:30:30 ( 22.68, 152.28) 01/31/2017 15:34:05 ( 10.06, 149.28)
19 02/01/2017 02:39:35 ( 10.02, 159.81) 02/01/2017 02:43:10 ( 22.64, 156.81)
20 02/01/2017 15:11:28 ( 22.68, 157.04) 02/01/2017 15:15:04 ( 10.00, 154.03)
21 02/02/2017 02:20:33 ( 10.02, 164.57) 02/02/2017 02:24:09 ( 22.70, 161.55)
22 02/02/2017 14:52:25 ( 22.69, 161.80) 02/02/2017 14:56:01 ( 10.01, 158.79)
23
